{"data":{"norad_id":54223,"epoch":"2026-05-22T06:22:49.059840Z","epoch_age_seconds":301522,"freshness":"STALE","line1":"1 54223U 22145A   26142.26584560 -.00001226  00000+0  00000+0 0  9991","line2":"2 54223  63.2865 283.7868 7054885 269.6534  16.6198  2.00574391 26046","mean_motion":2.00574391,"eccentricity":0.7054885,"inclination_deg":63.2865,"raan_deg":283.7868,"arg_perigee_deg":269.6534,"mean_anomaly_deg":16.6198,"bstar":0,"rev_number":2604,"period_min":717.93811404368,"perigee_km":1443.9104143842,"apogee_km":38918.606630341,"semimajor_km":26559.395522362,"source":"CELESTRAK","updated_at":"2026-05-25T13:37:58.662054Z"}}